Time,TemperatureF,DewpointF,PressureIn,WindDirection,WindDirectionDegrees,WindSpeedMPH,WindSpeedGustMPH,Humidity,HourlyPrecipIn,Conditions,Clouds,dailyrainin,SoftwareType,DateUTC
2013-10-14 00:24:00,68.0,-99.9,-100.00,West,281,1.0,-999.0,-999,-99.99,,,0.00,,2013-10-14 04:24:00,
2013-10-14 00:44:00,66.0,-99.9,-100.00,ENE,75,1.0,-999.0,-999,-99.99,,,0.00,,2013-10-14 04:44:00,
2013-10-14 01:43:00,64.0,-99.9,-100.00,WNW,289,2.0,-999.0,-999,-99.99,,,0.00,,2013-10-14 05:43:00,
2013-10-14 01:53:00,63.0,-99.9,-100.00,North,8,0.0,-999.0,-999,-99.99,,,0.00,,2013-10-14 05:53:00,
2013-10-14 02:02:00,63.0,-99.9,-100.00,North,8,0.0,-999.0,-999,-99.99,,,0.00,,2013-10-14 06:02:00,
2013-10-14 02:13:00,63.0,-99.9,-100.00,North,8,0.0,-999.0,-999,-99.99,,,0.00,,2013-10-14 06:13:00,
2013-10-14 02:42:00,62.0,-99.9,-100.00,NW,311,1.0,-999.0,-999,-99.99,,,0.00,,2013-10-14 06:42:00,
2013-10-14 03:11:00,63.0,-99.9,-100.00,North,4,2.0,-999.0,-999,-99.99,,,0.00,,2013-10-14 07:11:00,
2013-10-14 03:42:00,63.0,-99.9,-100.00,WNW,291,1.0,-999.0,-999,-99.99,,,0.00,,2013-10-14 07:42:00,
2013-10-14 04:12:00,61.0,-99.9,-100.00,NE,34,1.0,-999.0,-999,-99.99,,,0.00,,2013-10-14 08:12:00,
2013-10-14 04:42:00,61.0,-99.9,-100.00,North,353,1.0,-999.0,-999,-99.99,,,0.00,,2013-10-14 08:42:00,
2013-10-14 05:11:00,61.0,-99.9,-100.00,NW,318,1.0,-999.0,-999,-99.99,,,0.00,,2013-10-14 09:11:00,
2013-10-14 05:43:00,61.0,-99.9,-100.00,WSW,245,1.0,-999.0,-999,-99.99,,,0.00,,2013-10-14 09:43:00,
2013-10-14 06:13:00,60.0,-99.9,-100.00,NW,320,2.0,-999.0,-999,-99.99,,,0.00,,2013-10-14 10:13:00,
2013-10-14 06:43:00,60.0,-99.9,-100.00,ENE,74,1.0,-999.0,-999,-99.99,,,0.00,,2013-10-14 10:43:00,
2013-10-14 06:53:00,61.0,-99.9,-100.00,East,87,2.0,-999.0,-999,-99.99,,,0.00,,2013-10-14 10:53:00,
2013-10-14 07:02:00,61.0,-99.9,-100.00,East,87,2.0,-999.0,-999,-99.99,,,0.00,,2013-10-14 11:02:00,
2013-10-14 07:12:00,61.0,-99.9,-100.00,East,87,2.0,-999.0,-999,-99.99,,,0.00,,2013-10-14 11:12:00,
2013-10-14 07:42:00,61.0,-99.9,-100.00,East,94,2.0,-999.0,-999,-99.99,,,0.00,,2013-10-14 11:42:00,
2013-10-14 08:12:00,60.0,-99.9,-100.00,ESE,110,1.0,-999.0,-999,-99.99,,,0.00,,2013-10-14 12:12:00,
2013-10-14 08:42:00,60.0,-99.9,-100.00,NNE,17,1.0,-999.0,-999,-99.99,,,0.00,,2013-10-14 12:42:00,
2013-10-14 09:11:00,61.0,-99.9,-100.00,East,92,2.0,-999.0,-999,-99.99,,,0.00,,2013-10-14 13:11:00,
2013-10-14 09:42:00,62.0,-99.9,-100.00,East,82,4.0,-999.0,-999,-99.99,,,0.00,,2013-10-14 13:42:00,
2013-10-14 10:11:00,63.0,-99.9,-100.00,East,85,3.0,-999.0,-999,-99.99,,,0.00,,2013-10-14 14:11:00,
2013-10-14 10:22:00,65.0,-99.9,-100.00,ENE,66,4.0,-999.0,-999,-99.99,,,0.00,,2013-10-14 14:22:00,
2013-10-14 10:32:00,65.0,-99.9,-100.00,ENE,66,4.0,-999.0,-999,-99.99,,,0.00,,2013-10-14 14:32:00,
2013-10-14 10:42:00,65.0,-99.9,-100.00,ENE,66,4.0,-999.0,-999,-99.99,,,0.00,,2013-10-14 14:42:00,
2013-10-14 10:52:00,68.0,-99.9,-100.00,ENE,65,5.0,-999.0,-999,-99.99,,,0.00,,2013-10-14 14:52:00,
2013-10-14 11:01:00,68.0,-99.9,-100.00,ENE,65,5.0,-999.0,-999,-99.99,,,0.00,,2013-10-14 15:01:00,
2013-10-14 11:11:00,68.0,-99.9,-100.00,ENE,65,5.0,-999.0,-999,-99.99,,,0.00,,2013-10-14 15:11:00,
2013-10-14 11:44:00,70.0,-99.9,-100.00,NE,34,4.0,-999.0,-999,-99.99,,,0.00,,2013-10-14 15:44:00,
2013-10-14 12:13:00,71.0,-99.9,-100.00,NNE,14,4.0,-999.0,-999,-99.99,,,-99.99,,2013-10-14 16:13:00,
2013-10-14 12:43:00,71.0,-99.9,-100.00,NNE,20,5.0,-999.0,-999,-99.99,,,-99.99,,2013-10-14 16:43:00,
2013-10-14 13:12:00,72.0,-99.9,-100.00,NNE,27,5.0,-999.0,-999,-99.99,,,0.00,,2013-10-14 17:12:00,
2013-10-14 13:42:00,74.0,-99.9,-100.00,NNE,27,5.0,-999.0,-999,-99.99,,,0.00,,2013-10-14 17:42:00,
2013-10-14 16:30:00,77.0,-99.9,-100.00,North,350,6.0,-999.0,-999,-99.99,,,0.00,,2013-10-14 20:30:00,
2013-10-14 17:22:00,77.0,-99.9,-100.00,North,350,6.0,-999.0,-999,-99.99,,,0.00,,2013-10-14 21:22:00,
2013-10-14 18:13:00,78.0,-99.9,-100.00,North,355,6.0,-999.0,-999,-99.99,,,0.00,,2013-10-14 22:13:00,
2013-10-14 18:44:00,77.0,-99.9,-100.00,NE,45,3.0,-999.0,-999,-99.99,,,0.00,,2013-10-14 22:44:00,
2013-10-14 19:42:00,75.0,-99.9,-100.00,ENE,64,1.0,-999.0,-999,-99.99,,,0.00,,2013-10-14 23:42:00,
2013-10-14 21:42:00,70.0,-99.9,-100.00,NNW,328,2.0,-999.0,-999,-99.99,,,0.00,,2013-10-15 01:42:00,
2013-10-14 22:42:00,68.0,-99.9,-100.00,West,276,0.0,-999.0,-999,-99.99,,,0.00,,2013-10-15 02:42:00,
2013-10-14 23:44:00,68.0,-99.9,-100.00,North,355,2.0,-999.0,-999,-99.99,,,0.00,,2013-10-15 03:44:00,